RH
9 9 9 9 9 9 9 10 10 11 11 11 12 18 14 12 10 10 11 24 29 25 27 28 28 35 43 50 52 50 54 56 50 36 37 42 50 52 56 60 48 30 16
8 8 8 8 8 9 9 10 10 10 11 12 14 17 15 17 16 15 14 10 14 26 34 44 49 36 28 38 50 52 60 65 65 60 64 77 78 78 74 70 62 42 26
6 7 7 8 8 9 10 11 12 12 12 13 13 14 18 22 17 22 23 19 19 16 24 37 43 57 46 30 30 35 45 63 72 73 87 84 79 80 81 80 69 47 34
7 8 9 11 14 16 17 18 19 20 17 17 16 19 24 25 24 26 31 34 36 38 46 46 52 58 73 76 65 48 69 77 77 84 76 74 76 77 75 79 81 70 54
13 13 14 16 18 16 13 9 7 8 9 11 12 12 14 15 14 22 25 36 45 51 54 56 63 77 76 81 96 91 86 74 74 76 84 84 85 84 81 84 82 77 76
15 15 15 15 13 8 7 10 12 13 13 15 17 18 19 20 21 21 23 30 34 43 55 55 56 77 96 95 94 97 96 94 92 74 62 73 87 95 96 95 96 96 93
6 6 6 5 6 12 16 18 13 14 18 21 24 27 23 22 28 34 28 23 39 48 49 56 54 72 87 96 96 95 96 94 86 79 96 97 97 96 98 96 97 71 53
3 4 5 12 14 16 20 18 16 17 19 23 23 22 20 15 12 29 41 34 24 42 54 54 57 73 85 97 96 96 97 96 98 96 96 96 97 96 94 91 76 64 51
4 9 14 13 14 17 16 17 22 24 27 26 21 14 9 10 21 22 44 60 40 30 45 57 64 76 84 94 97 96 97 96 96 100 97 96 95 95 94 95 93 69 36
16 17 17 16 18 16 19 24 28 29 25 18 10 10 16 37 50 43 61 80 77 76 81 91 66 63 75 90 96 96 93 90 88 94 95 96 96 96 95 96 96 92 88
19 17 17 16 17 22 26 29 32 32 20 11 11 29 55 75 82 75 77 82 83 97 79 74 94 83 86 79 84 98 98 87 82 93 100 98 98 98 95 94 95 90 97
21 22 20 23 26 27 28 33 33 25 15 15 14 40 60 82 90 77 77 92 89 97 98 98 88 80 98 99 91 90 100 96 97 97 96 95 96 89 89 86 85 90 92
30 31 30 28 29 26 30 33 33 26 20 19 15 32 54 77 93 97 84 94 98 99 98 92 78 80 83 88 91 94 100 91 98 98 98 97 92 91 94 96 97 100 96
27 29 29 17 11 20 34 39 34 30 26 24 18 21 62 70 100 92 83 99 98 94 94 97 72 66 74 83 84 93 94 93 94 96 96 93 93 81 98 96 96 91 85
26 19 5 6 14 14 12 19 30 37 38 34 24 18 40 77 89 95 92 88 93 100 96 90 89 75 71 72 61 58 62 66 81 85 81 96 97 99 93 96 84 87 81
9 5 5 5 5 5 6 6 6 9 24 35 41 26 22 32 67 78 81 80 77 82 90 94 94 92 70 62 62 58 66 100 91 89 94 91 84 67 46 41 52 56 58
6 5 6 6 7 7 8 9 9 9 8 22 27 48 45 32 24 36 61 66 67 78 83 81 79 75 74 76 71 67 64 69 58 49 43 50 31 29 31 35 35 36 35
6 6 6 6 8 10 10 12 14 15 13 12 16 14 22 42 51 28 25 22 28 44 64 72 74 72 75 75 69 68 62 60 52 42 36 38 37 31 28 30 33 36 38
5 6 7 8 13 16 18 18 19 19 20 19 16 13 12 13 15 31 51 30 26 25 23 22 27 52 70 72 71 73 70 63 50 44 38 34 29 28 67 76 79 90 95
5 6 8 11 15 17 16 16 17 18 18 20 21 22 22 19 15 14 15 43 42 56 54 41 28 26 30 37 43 45 42 37 32 50 62 50 52 57 97 100 97 88 76
7 10 14 15 14 12 10 10 10 11 12 12 14 20 22 23 24 24 21 18 18 18 24 25 50 69 67 56 56 58 80 86 70 94 98 94 100 86 57 32 24 22 21
12 11 9 10 10 12 18 22 28 29 32 37 31 16 13 17 21 23 24 26 27 25 23 19 18 18 20 37 49 40 26 26 40 41 26 19 18 20 25 30 30 25 30
9 8 9 17 20 23 25 26 24 25 28 31 38 46 51 49 31 21 20 20 20 22 26 28 30 30 30 29 29 29 29 30 31 31 31 28 24 20 20 24 34 44 52
9 12 19 25 24 24 24 24 26 27 26 28 35 40 44 55 65 68 69 72 74 74 70 56 35 25 24 23 24 24 22 22 25 32 42 52 62 72 76 72 68 58 39
17 22 24 21 19 20 20 22 22 21 20 19 19 22 40 39 47 55 65 67 69 76 77 78 89 93 89 81 75 74 74 77 75 72 72 69 63 47 21 17 19 19 17
23 23 21 20 24 25 26 26 25 25 24 24 24 22 18 25 39 50 50 56 57 58 73 86 83 86 90 89 86 81 78 77 70 56 35 25 24 24 20 16 14 12 13
Wind_Speed
32 33 34 35 36 38 38 39 41 42 44 45 46 44 44 44 44 45 46 48 51 49 48 47 46 46 45 44 43 42 41 40 39 37 36 36 35 35 35 34 32 32 29
36 37 39 40 42 43 46 47 48 49 50 52 52 53 52 50 49 49 48 47 46 49 49 49 47 47 47 47 48 47 45 43 41 39 38 37 36 36 36 35 32 32 30
41 42 44 46 47 48 50 51 54 55 55 57 57 58 59 58 57 55 53 51 50 47 47 46 48 49 49 49 51 51 49 46 42 39 39 39 38 37 37 37 36 34 33
47 48 48 50 51 51 51 52 52 54 55 58 60 60 61 62 62 61 60 57 54 52 48 47 45 47 48 51 52 52 48 45 43 42 41 42 41 40 38 39 39 37 35
52 52 51 50 49 49 50 51 51 52 52 54 56 58 61 64 66 65 65 63 59 55 53 49 48 48 50 52 52 53 51 47 44 44 46 46 44 42 43 42 40 38 36
49 50 50 51 52 50 45 43 45 48 49 53 57 60 63 64 65 66 68 67 65 62 58 55 53 50 51 56 58 51 51 48 44 45 48 49 47 43 39 40 42 46 40
52 51 49 46 42 38 41 45 47 52 55 58 63 66 68 71 72 72 68 68 68 66 63 59 59 59 53 57 44 43 39 39 45 40 42 49 46 37 34 35 34 31 31
50 46 40 35 35 40 44 49 53 55 58 63 66 74 78 75 73 71 72 68 68 69 66 64 64 62 55 45 39 34 39 41 44 41 39 41 35 34 36 34 33 35 39
39 31 32 35 39 45 48 53 54 58 59 63 71 79 77 70 63 64 67 68 65 66 67 67 65 66 55 43 35 40 38 41 47 43 44 45 42 43 42 44 39 42 44
30 34 36 39 43 47 50 52 54 54 58 64 68 69 63 56 54 54 60 60 61 61 58 64 73 68 62 66 58 55 50 47 47 48 46 47 48 46 46 47 44 47 50
32 34 37 38 43 46 46 49 48 49 51 52 56 51 52 49 47 48 45 52 41 46 64 69 53 62 61 63 63 55 50 51 50 51 51 51 51 51 51 49 49 51 51
36 35 35 38 41 39 44 43 42 40 40 46 48 46 38 41 42 44 41 42 52 26 38 60 60 60 59 56 55 55 53 50 47 52 53 48 52 55 50 52 53 51 51
24 25 30 33 34 37 39 36 31 31 36 41 44 42 31 28 21 29 32 33 45 61 56 47 47 52 54 56 56 55 48 54 50 44 42 46 45 47 55 55 56 55 54
22 24 26 24 24 27 26 26 27 27 30 33 35 34 27 23 17 18 24 29 31 40 46 47 48 53 53 52 53 51 52 57 59 58 57 52 50 48 47 40 37 37 38
15 12 12 15 18 18 20 22 23 25 28 30 33 31 25 20 16 15 16 19 25 31 37 39 40 45 51 51 53 54 53 57 61 60 55 47 46 48 49 49 50 57 45
4 8 11 15 18 20 21 24 25 25 25 27 28 29 27 22 17 17 21 23 24 26 28 33 40 39 40 43 44 47 47 45 47 47 52 56 53 53 48 46 50 48 48
7 10 16 18 20 22 23 23 25 26 26 24 26 26 23 20 18 17 17 18 23 25 28 30 33 38 40 42 45 46 47 49 48 46 48 52 46 46 43 42 45 46 48
13 15 19 23 25 25 25 25 25 25 25 24 25 25 25 24 17 14 14 15 19 24 28 32 33 33 34 35 37 41 47 47 46 45 41 41 40 42 46 46 48 49 50
16 20 23 26 26 27 28 28 27 27 26 25 23 23 23 23 22 21 16 13 13 15 17 19 23 28 32 32 33 33 35 38 40 41 40 40 39 39 42 40 39 41 39
22 25 27 29 29 30 30 30 30 30 29 28 28 27 24 22 20 19 17 14 16 16 16 17 17 17 20 23 26 29 30 32 32 34 33 32 34 38 42 44 42 40 45
26 28 29 29 29 28 28 28 28 29 29 30 29 28 27 26 24 21 21 19 18 17 18 19 18 17 19 22 25 26 27 30 31 29 30 33 37 39 41 43 44 47 49
29 29 28 27 26 28 28 27 26 27 29 29 29 28 27 28 27 26 25 23 22 23 23 23 23 24 25 26 27 30 31 32 32 35 38 41 42 44 46 48 49 48 49
30 28 28 30 27 26 25 26 28 30 31 31 31 30 30 28 26 26 27 27 27 27 27 28 28 29 30 31 32 34 35 36 38 40 41 43 45 47 49 50 52 55 57
34 32 29 26 26 27 28 29 30 31 33 33 32 32 32 33 32 31 30 30 30 30 31 31 31 32 33 34 34 36 37 38 40 42 43 45 48 51 53 55 56 57 57
34 32 31 31 32 33 33 34 34 35 35 37 37 37 36 36 37 37 35 34 34 36 37 36 35 35 36 37 38 39 40 41 42 43 45 46 48 49 53 54 56 59 61
36 35 37 37 37 37 38 39 39 41 41 41 41 41 41 42 43 42 42 42 42 40 42 41 40 37 36 35 36 36 37 38 39 41 43 46 48 50 51 56 58 58 60
Wind_Direction
281 282 283 284 283 283 280 279 278 279 280 281 281 279 279 278 276 275 274 271 270 270 269 267 267 267 267 267 266 267 268 270 271 270 273 275 276 276 277 277 275 273 269
285 285 284 283 282 280 280 279 277 277 276 277 277 278 276 274 273 273 271 271 270 270 269 269 269 268 267 267 267 266 267 268 267 268 269 271 273 275 275 275 273 269 266
285 283 282 281 279 278 277 277 279 279 278 277 276 275 276 275 273 271 270 268 269 268 269 267 266 266 267 265 265 265 265 265 264 263 265 269 269 269 270 271 270 267 266
283 281 279 278 278 278 279 279 279 279 280 280 280 279 276 274 272 271 269 268 267 267 265 268 267 266 265 265 264 263 259 258 259 262 265 267 267 267 266 268 268 267 266
282 282 282 282 281 281 282 282 279 278 279 279 279 278 278 276 273 270 268 266 265 265 264 262 264 266 265 265 268 256 255 257 259 263 266 266 266 264 263 262 262 261 261
283 284 284 284 285 284 281 280 280 280 281 281 282 282 281 279 276 272 267 264 262 260 260 260 261 264 265 257 266 245 253 254 258 265 270 273 267 258 261 263 267 264 257
286 286 285 284 280 277 283 289 283 284 286 286 287 286 284 281 276 271 267 263 261 258 257 257 258 258 267 255 248 248 250 254 260 266 260 267 267 262 263 268 268 263 263
284 285 283 277 278 288 290 290 289 291 292 292 292 291 288 282 275 266 262 258 256 258 256 254 254 255 256 262 248 251 248 256 261 267 274 264 267 252 264 268 261 265 267
281 277 277 279 286 292 292 296 295 295 295 296 297 296 292 286 272 262 258 254 253 255 257 255 254 254 254 247 251 259 265 259 268 277 275 272 268 273 275 273 268 267 268
283 283 284 286 289 295 296 299 298 297 301 303 301 298 293 285 277 262 252 251 251 249 249 257 247 252 252 254 264 269 278 271 271 272 271 273 272 272 271 273 271 272 266
285 286 287 291 294 295 299 298 301 303 308 310 317 305 296 287 272 266 257 251 248 260 252 251 253 251 256 257 263 270 264 270 272 274 273 273 275 275 271 270 271 273 278
290 288 290 294 298 300 301 300 305 308 318 326 327 317 309 296 272 259 258 245 232 243 248 247 250 254 258 261 261 263 267 270 271 276 272 274 279 271 271 270 269 271 272
294 301 302 304 301 303 299 303 305 317 324 335 338 329 309 311 288 255 260 256 244 252 266 265 257 258 260 261 261 262 264 266 268 270 266 269 277 278 266 269 270 269 270
307 303 306 310 312 313 313 309 310 322 329 340 340 334 319 322 304 272 262 257 257 256 259 259 257 256 258 260 264 268 269 266 268 267 278 288 285 284 271 269 270 271 267
303 319 334 346 350 353 348 341 333 330 334 341 345 341 333 320 305 285 272 264 264 263 261 257 258 256 259 263 264 266 270 273 272 272 274 273 272 275 268 270 271 283 285
305 318 331 336 340 336 339 339 344 353 352 347 347 350 347 337 314 290 277 273 270 269 270 268 262 262 263 264 267 267 262 263 279 275 272 272 277 287 285 283 285 284 280
307 307 325 329 332 331 332 336 337 343 348 359 2 1 356 353 341 319 298 281 274 272 270 268 266 265 265 266 266 267 268 271 281 280 282 282 282 282 278 278 275 274 271
305 314 322 324 323 323 324 328 332 336 342 345 345 350 6 7 352 347 330 310 292 282 274 269 266 266 267 267 267 264 264 267 271 276 277 279 279 279 278 276 275 276 274
305 312 315 317 318 320 322 323 326 328 333 334 338 340 346 352 356 358 340 327 317 305 300 293 282 272 269 269 270 269 267 266 269 274 277 278 275 275 274 276 278 278 275
303 307 311 313 316 318 318 318 320 322 323 324 326 329 332 333 335 339 343 344 336 327 315 302 294 286 277 275 275 275 276 276 275 283 280 283 281 274 273 279 273 284 283
298 302 307 311 313 314 316 320 322 322 323 322 320 318 318 320 321 321 321 321 321 320 316 317 321 314 297 286 282 280 285 282 276 285 287 281 280 283 283 285 285 282 283
300 303 304 307 308 311 312 315 318 321 323 321 319 318 316 314 313 312 310 308 306 304 303 302 300 296 293 289 287 288 290 290 285 282 283 284 285 287 286 285 284 284 285
291 293 295 299 300 303 311 315 317 320 323 325 325 327 322 316 312 309 308 306 304 301 298 297 294 292 291 290 288 288 287 287 287 287 286 286 286 287 286 286 286 286 288
288 288 290 292 293 298 302 305 307 312 314 313 315 318 318 320 317 313 312 311 309 307 302 298 294 292 290 290 289 288 288 288 287 287 288 287 288 288 289 288 288 288 288
282 281 281 284 288 291 297 301 304 306 308 308 308 307 309 315 310 307 308 311 314 311 305 303 300 294 289 287 286 286 288 289 291 292 292 293 293 294 294 293 292 291 291
272 273 276 280 285 288 292 295 298 301 303 305 306 306 304 303 305 309 302 300 301 307 311 306 299 298 295 293 292 291 291 291 293 296 297 296 294 293 292 294 293 293 295